Overview Statistics Trail Chart Weather Telemetry Raw packets
 

This is the latest recevied weather packets stored in our database for station/object LU1MQF-13. If no packets are shown the sender has not sent any weather packets the latest 10 day(s).

<< 26 27 28 29 30 31 32 >>
Time Temp. Humidity Pressure Rain* Wind** Luminosity Snow
1777405312 22.22° C 23% 932.6 hPa - - - -
1777404411 22.22° C 23% 932.9 hPa - - - -
1777403513 22.78° C 23% 933.3 hPa - - - -
1777402612 22.22° C 23% 933.6 hPa - - - -
1777401711 22.22° C 23% 933.7 hPa - - - -
1777400812 22.78° C 24% 934.2 hPa - - - -
1777399911 22.78° C 24% 934.4 hPa - - - -
1777399012 22.22° C 26% 935 hPa - - - -
1777398112 22.22° C 29% 935.1 hPa - - - -
1777397211 22.22° C 26% 935.6 hPa - - - -
1777396312 22.22° C 28% 935.9 hPa - - - -
1777395412 21.11° C 29% 936.1 hPa - - - -
1777394512 21.11° C 31% 936.5 hPa - - - -
1777393612 21.11° C 34% 937 hPa - - - -
1777392716 21.11° C 39% 937.3 hPa - - - -
1777391812 20° C 33% 937.7 hPa - - - -
1777390912 20° C 34% 937.9 hPa - - - -
1777390012 18.89° C 34% 938.2 hPa - - - -
1777389112 18.89° C 34% 938.4 hPa - - - -
1777388212 18.89° C 35% 938.7 hPa - - - -
1777387312 17.78° C 35% 938.7 hPa - - - -
1777386412 17.78° C 38% 938.9 hPa - - - -
1777385512 17.22° C 39% 939.2 hPa - - - -
1777384612 17.22° C 40% 939.6 hPa - - - -
1777383712 17.22° C 41% 939.7 hPa - - - -

* Rain since midnight (hover to see other rain measurements)
** Current wind speed in m/s (hover to see current wind gust speed)